Lincolnton, NC

4:06 AM EDT on May 30, 2017 (GMT -0400)
Lincolnton-Lincoln County Regional

Weather History for KIPJ - September, 2013

Change the Weather History Date:

Saturday, September 14, 2013

  Actual Average (KCLT) Record (KCLT)
Temperature  
Mean Temperature 64 °F -  
Max Temperature 75 °F 83 °F 97 °F (1897)
Min Temperature 53 °F 63 °F 45 °F (2015)
Degree Days  
Heating Degree Days 1    
Growing Degree Days 14 (Base 50)    
Moisture  
Dew Point 50 °F    
Average Humidity 64    
Maximum Humidity 94    
Minimum Humidity 41    
Precipitation  
Precipitation 0.00 in - - ()
Sea Level Pressure  
Sea Level Pressure 30.05 in    
Wind  
Wind Speed 4 mph (NNE)    
Max Wind Speed 12 mph    
Max Gust Speed 18 mph    
Visibility 10 miles    
Events      
Averages and records for this station are not official NWS values.
T = Trace of Precipitation, MM = Missing Value Source: NWS Daily Summary

Daily Weather History Graph

Daily Weather History Graph

Search for Another Location

Airport or City:

Trip Planner

Search our weather history database for the weather conditions in past years. The results will help you decide how hot, cold, wet, or windy it might be!

Date:

Astronomy

Sep. 14, 2013 Rise Set
Actual Time 7:06 AM EDT 7:32 PM EDT
Civil Twilight 6:41 AM EDT 7:58 PM EDT
Nautical Twilight 6:11 AM EDT 8:28 PM EDT
Astronomical Twilight 5:40 AM EDT 8:58 PM EDT
Moon 4:05 PM EDT (9/14) 1:45 AM EDT (9/14)
Length of Visible Light 13h 17m
Length of Day
12h 26m
Waxing Gibbous, 72% of the Moon is Illuminated
Sep 14
Waxing Gibbous
Sep 19
Full
Sep 26
Last Quarter
Oct 4
New
Oct 11
First Quarter

Hourly Weather History & Observations

Time (EDT) Temp. Dew Point Humidity Pressure Visibility Wind Dir Wind Speed Gust Speed Precip Events Conditions
12:17 AM 64.4 °F 48.2 °F 56% 29.95 in 10.0 mi North 4.6 mph - N/A   Mostly Cloudy
12:39 AM 62.6 °F 48.2 °F 59% 29.95 in 10.0 mi North 5.8 mph - N/A   Mostly Cloudy
1:17 AM 62.6 °F 48.2 °F 59% 29.96 in 10.0 mi NNE 8.1 mph - N/A   Mostly Cloudy
3:59 AM 55.4 °F 50.0 °F 82% 29.96 in 10.0 mi NNW 3.5 mph - N/A   Scattered Clouds
4:39 AM 53.6 °F 50.0 °F 88% 29.98 in 10.0 mi Calm Calm - N/A   Mostly Cloudy
5:58 AM 55.4 °F 48.2 °F 77% 30.00 in 10.0 mi Calm Calm - N/A   Mostly Cloudy
6:16 AM 55.4 °F 46.4 °F 72% 30.01 in 10.0 mi NW 3.5 mph - N/A   Mostly Cloudy
6:58 AM 55.4 °F 48.2 °F 77% 30.02 in 10.0 mi Calm Calm - N/A   Mostly Cloudy
9:18 AM 60.8 °F 48.2 °F 63% 30.08 in 10.0 mi NE 5.8 mph - N/A   Overcast
9:57 AM 62.6 °F 48.2 °F 59% 30.09 in 10.0 mi NE 9.2 mph - N/A   Overcast
10:16 AM 64.4 °F 48.2 °F 56% 30.10 in 10.0 mi ENE 11.5 mph 18.4 mph N/A   Overcast
10:58 AM 66.2 °F 48.2 °F 52% 30.10 in 10.0 mi NNE 9.2 mph - N/A   Scattered Clouds
11:56 AM 69.8 °F 48.2 °F 46% 30.10 in 10.0 mi East 8.1 mph - N/A   Overcast
12:36 PM 69.8 °F 50.0 °F 49% 30.09 in 10.0 mi East 4.6 mph - N/A   Scattered Clouds
1:56 PM 73.4 °F 50.0 °F 44% 30.08 in 10.0 mi ENE 6.9 mph - N/A   Clear
2:18 PM 75.2 °F 50.0 °F 41% 30.07 in 10.0 mi NNW 3.5 mph - N/A   Clear
3:37 PM 75.2 °F 51.8 °F 44% 30.06 in 10.0 mi SSE 3.5 mph - N/A   Clear
5:15 PM 75.2 °F 51.8 °F 44% 30.06 in 10.0 mi Calm Calm - N/A   Clear
6:15 PM 75.2 °F 53.6 °F 47% 30.07 in 10.0 mi NNW 3.5 mph - N/A   Clear
6:36 PM 73.4 °F 53.6 °F 50% 30.07 in 10.0 mi Calm Calm - N/A   Clear
8:59 PM 57.2 °F 55.4 °F 94% 30.10 in 10.0 mi Calm Calm - N/A   Clear
9:16 PM 57.2 °F 55.4 °F 94% 30.11 in 10.0 mi Calm Calm - N/A   Clear
9:58 PM 57.2 °F 55.4 °F 94% 30.12 in 10.0 mi Calm Calm - N/A   Clear
10:39 PM 57.2 °F 55.4 °F 94% 30.13 in 10.0 mi Calm Calm - N/A   Clear